Date,TemperatureHighF,TemperatureAvgF,TemperatureLowF,DewpointHighF,DewpointAvgF,DewpointLowF,HumidityHigh,HumidityAvg,HumidityLow,PressureMaxIn,PressureMinIn,WindSpeedMaxMPH,WindSpeedAvgMPH,GustSpeedMaxMPH,PrecipitationSumIn
2013-6-12,95.0,83.1,72.0,69.0,65.5,60.0,87,58,32,0.00,40.00,0,-999,0,0.00
2013-6-13,97.0,81.0,70.0,69.0,66.4,60.0,94,64,31,0.00,40.00,0,-999,0,0.03
2013-6-14,84.0,77.1,70.0,72.0,66.9,62.0,95,72,49,0.00,40.00,0,-999,0,0.01
2013-6-15,91.0,79.8,71.0,74.0,65.3,-99.9,100,69,35,0.00,40.00,0,-999,0,0.01
2013-6-16,96.0,82.9,71.0,69.0,64.5,60.0,84,57,31,0.00,40.00,0,-999,0,0.00
2013-6-17,98.0,85.4,73.0,71.0,65.9,61.0,84,56,30,0.00,40.00,0,-999,0,0.00
2013-6-18,90.0,77.1,68.0,70.0,66.1,62.0,100,71,43,0.00,40.00,0,-999,0,0.37
2013-6-19,96.0,84.4,70.0,70.0,64.3,59.0,95,55,31,0.00,40.00,0,-999,0,0.01
2013-6-20,94.0,81.7,75.0,67.0,65.3,60.0,74,59,34,0.00,40.00,0,-999,0,0.00
2013-6-22,91.0,87.6,81.0,66.0,62.1,58.0,59,43,33,0.00,40.00,0,-999,0,0.00
2013-6-26,99.0,85.7,75.0,70.0,66.0,61.0,76,54,29,0.00,40.00,0,-999,0,0.00
2013-6-27,103.0,87.6,74.0,69.0,58.1,40.0,77,44,12,0.00,40.00,0,-999,0,0.00
2013-6-28,106.0,86.8,68.0,67.0,57.7,52.0,73,42,18,0.00,40.00,0,-999,0,0.00
2013-6-29,107.0,90.4,70.0,63.0,54.4,-99.9,69,36,14,0.00,40.00,0,-999,0,0.00
2013-6-30,90.0,80.8,69.0,68.0,61.6,54.0,96,54,30,0.00,40.00,0,-999,0,0.18
2013-7-1,87.0,76.9,64.0,66.0,53.7,43.0,78,48,23,0.00,40.00,0,-999,0,0.01
2013-7-2,90.0,74.3,56.0,55.0,46.2,33.0,85,46,14,0.00,40.00,0,-999,0,0.00
2013-8-4,99.0,87.2,73.0,69.0,64.9,60.0,83,50,29,0.00,40.00,0,-999,0,0.00
2013-8-5,101.0,87.9,72.0,68.0,61.1,53.0,69,44,21,0.00,40.00,0,-999,0,0.00
2013-8-6,104.0,89.6,73.0,70.0,62.1,51.0,78,45,18,0.00,40.00,0,-999,0,0.00
2013-8-7,105.0,91.1,75.0,69.0,61.4,51.0,77,42,19,0.00,40.00,0,-999,0,0.00
2013-8-8,105.0,90.1,75.0,70.0,56.0,-99.9,77,41,12,0.00,40.00,0,-999,0,0.00
2013-8-9,103.0,89.2,72.0,69.0,55.8,44.0,83,38,16,0.00,40.00,0,-999,0,0.00
2013-8-10,100.0,85.7,70.0,68.0,58.9,52.0,61,42,25,0.00,40.00,0,-999,0,0.00
2013-8-21,92.0,79.2,69.0,74.0,66.6,60.0,100,68,35,0.00,40.00,0,-999,0,0.68
2013-8-22,95.0,81.7,69.0,73.0,67.1,59.0,100,68,30,0.00,40.00,0,-999,0,0.01
2013-8-23,97.0,83.8,70.0,70.0,65.0,57.0,96,57,27,0.00,40.00,0,-999,0,0.00
2013-8-24,98.0,84.1,71.0,69.0,64.1,56.0,93,56,27,0.00,40.00,0,-999,0,0.00
2013-8-25,93.0,83.0,70.0,69.0,64.8,59.0,92,58,33,0.00,40.00,0,-999,0,0.00
2013-8-26,89.0,81.0,72.0,69.0,66.1,63.0,85,62,41,0.00,40.00,0,-999,0,0.00
2013-8-27,83.0,74.2,71.0,73.0,70.6,67.0,100,89,67,0.00,40.00,0,-999,0,0.57
2013-8-28,94.0,87.8,77.0,66.0,62.1,58.0,68,44,33,0.00,40.00,0,-999,0,0.22
2013-8-29,97.0,81.9,70.0,71.0,64.8,57.0,100,62,26,0.00,40.00,0,-999,0,0.00
2013-8-30,98.0,83.1,70.0,68.0,63.0,54.0,85,56,24,0.00,40.00,0,-999,0,0.00
2013-8-31,99.0,86.6,69.0,67.0,62.6,58.0,87,48,26,0.00,40.00,0,-999,0,0.00
2013-9-11,93.0,79.8,69.0,74.0,64.6,50.0,100,67,27,0.00,40.00,0,-999,0,0.01
2013-9-12,94.0,79.3,64.0,69.0,61.4,53.0,98,60,26,0.00,40.00,0,-999,0,0.00
2013-9-13,96.0,80.3,65.0,67.0,58.1,51.0,83,52,23,0.00,40.00,0,-999,0,0.00
2013-9-14,94.0,80.1,64.0,64.0,58.6,56.0,81,51,29,0.00,40.00,0,-999,0,0.00
2013-9-15,90.0,80.8,68.0,66.0,63.5,59.0,88,58,36,0.00,40.00,0,-999,0,0.00
2013-9-16,91.0,77.8,67.0,75.0,67.4,61.0,100,73,36,0.00,40.00,0,-999,0,0.05
2013-9-17,88.0,77.5,71.0,75.0,70.2,64.0,100,82,45,0.00,40.00,0,-999,0,0.06
2013-10-21,74.0,61.5,51.0,61.0,53.9,50.0,98,78,57,0.00,40.00,0,-999,0,0.00
2013-10-22,73.0,58.9,45.0,51.0,42.3,30.0,98,62,23,0.00,40.00,0,-999,0,0.00
2013-10-23,82.0,59.3,43.0,46.0,41.0,35.0,91,59,19,0.00,40.00,0,-999,0,0.00
2013-10-24,80.0,59.2,41.0,49.0,43.1,38.0,98,63,22,0.00,40.00,0,-999,0,0.00
2013-10-25,77.0,60.4,44.0,58.0,50.1,44.0,99,72,42,0.00,40.00,0,-999,0,0.00
2013-10-26,79.0,69.6,65.0,61.0,60.1,58.0,84,72,54,0.00,40.00,0,-999,0,0.00
2013-10-27,68.0,62.7,57.0,63.0,57.1,53.0,95,82,67,0.00,40.00,0,-999,0,0.02
2013-11-14,63.0,44.4,25.0,39.0,30.4,22.0,98,65,24,0.00,40.00,0,-999,0,0.00
2013-11-15,51.0,44.7,37.0,44.0,40.6,37.0,99,86,76,0.00,40.00,0,-999,0,0.00
2013-11-16,76.0,68.9,52.0,64.0,60.4,52.0,99,75,62,0.00,40.00,0,-999,0,0.00
2013-11-17,86.0,69.4,52.0,65.0,54.9,36.0,100,68,17,0.00,40.00,0,-999,0,0.00
2013-11-18,72.0,58.9,48.0,53.0,47.2,42.0,90,68,44,0.00,40.00,0,-999,0,0.00
2013-11-19,72.0,60.1,47.0,49.0,43.4,38.0,87,57,33,0.00,40.00,0,-999,0,0.00
2013-11-20,71.0,63.7,55.0,63.0,57.0,49.0,91,79,70,0.00,40.00,0,-999,0,0.00
2013-11-24,37.0,35.0,33.0,33.0,29.0,26.0,89,78,68,0.00,40.00,0,-999,0,0.13
2013-11-25,39.0,36.8,32.0,34.0,33.3,32.0,99,88,79,0.00,40.00,0,-999,0,0.58
2013-11-26,51.0,40.3,34.0,32.0,27.9,23.0,86,63,34,0.00,40.00,0,-999,0,0.01
2013-11-27,49.0,37.5,23.0,27.0,18.8,11.0,92,53,22,0.00,40.00,0,-999,0,0.00
2013-11-28,56.0,37.6,27.0,29.0,26.6,23.0,98,71,28,0.00,40.00,0,-999,0,0.00
2013-11-29,59.0,42.1,24.0,46.0,34.8,22.0,96,77,52,0.00,40.00,0,-999,0,0.00
2013-11-30,67.0,54.0,39.0,51.0,47.3,38.0,100,80,56,0.00,40.00,0,-999,0,0.00
2013-12-1,69.0,58.0,47.0,55.0,52.3,46.0,100,83,60,0.00,40.00,0,-999,0,0.00
2013-12-5,57.0,38.6,27.0,57.0,30.0,19.0,100,71,54,0.00,40.00,0,-999,0,0.00
2013-12-6,29.0,27.6,24.0,28.0,22.6,17.0,96,82,71,0.00,40.00,0,-999,0,0.00
2013-12-7,26.0,23.8,22.0,18.0,16.0,13.0,76,72,67,0.00,40.00,0,-999,0,0.00
2013-12-8,46.0,31.1,24.0,34.0,26.6,18.0,97,84,63,0.00,40.00,0,-999,0,0.00
2013-12-9,37.0,31.9,25.0,37.0,31.3,25.0,100,97,87,0.00,40.00,0,-999,0,0.03
2013-12-10,45.0,31.4,21.0,27.0,21.7,17.0,92,71,33,0.00,40.00,0,-999,0,0.01
2013-12-11,54.0,34.7,22.0,26.0,22.8,20.0,94,70,33,0.00,40.00,0,-999,0,0.00
2013-12-12,48.0,43.5,40.0,33.0,30.3,28.0,75,60,47,0.00,40.00,0,-999,0,0.00
2013-12-13,45.0,43.5,40.0,41.0,35.5,31.0,96,75,58,0.00,40.00,0,-999,0,0.10
2013-12-14,51.0,42.7,28.0,42.0,31.8,24.0,100,68,38,0.00,40.00,0,-999,0,0.01
2013-12-15,61.0,36.7,22.0,28.0,24.1,20.0,93,68,22,0.00,40.00,0,-999,0,0.00
2013-12-16,69.0,41.9,22.0,31.0,26.4,21.0,94,64,20,0.00,40.00,0,-999,0,0.00
2013-12-30,47.0,34.4,25.0,26.0,21.8,18.0,84,63,35,0.00,40.00,0,-999,0,0.00
2013-12-31,60.0,40.6,26.0,30.0,28.0,24.0,94,66,28,0.00,40.00,0,-999,0,0.00
2014-1-1,69.0,47.2,27.0,49.0,35.7,-99.9,96,74,45,0.00,40.00,0,-999,0,0.00
2014-1-2,49.0,37.2,25.0,33.0,22.5,20.0,86,58,33,0.00,40.00,0,-999,0,0.00